Location: Kuppenheim
(48.8299°N, 8.2568°E)
Time: 13:53:12
(UTC+00:00)

Meteor 2-19 Rocket - Pass Details

Date: 20 June 2021
Orbit: 935 x 959 km, 82.5° (Epoch: 29 July)

Event Time Altitude Azimuth Distance (km) Brightness Sun altitude
Exits shadow 01:16:27 18° 188° (S) 2,176 5.7 -13.8°
Maximum altitude 01:21:15 90° 284° (WNW) 961 4.5 -13.5°
Drops below altitude 10° 01:27:24 10° 10° (N) 2,685 8.1 -13.0°
Sets 01:29:54 0° 11° (N) 3,630 9.0 -12.8°
